Погода в Горине

Погода в Горине : погода сейчас, прогноз погоды и архив. Всё, что Вы хотите узнать о погоде в Горине!

Хотите узнать прогноз погоды в Горине? Тогда Вам сюда: Погода в Горине

Поиск расширенной информации на нашем сайте:

Другие новости

Новости СМИ2

Главная страница сайта

Новости сайта

03.07.2017

Напоминаем, что на нашем специализированном сайте Метеоцентр.Азия вы можете получить высокодетализированные автоматические прогнозы погоды по пунктам России, СНГ и мира в авиационном формате (включающие направление и скорость ветра, видимость, явления погоды, количество и форму облачности, нижнюю и верхнюю границу облачности).

Рекомендуем: обратите внимание у метро Октябрьская описание помещений на сайте

Погода в Горине - сегодня

Время (UTC), дата Ветер
(°,м/с) 
Видим.   Явления Облачность Т
(°С)
Тd
(°С)
f(%) Тe
(°С)
Pmin
(гПа)
dP
(гПа)
Po
(мм)
O2
(г/м3)
Тmin Tmax R s Состояние
почвы
03 18.04.18 340 (С) 20000 м    10/0 средняя 
[Ac und]
+8.9 -2.1 46 +9  1007.5  0.4  747  292           
06 18.04.18 030 (СВ) 20000 м    10/0 средняя, верхняя 
[Ac lent|Ci sp]
+11.9 -2.2 37 +12  1006.6  -0.7  747  289           
12 18.04.18 тихо ()   10 км    ясно 
+1.8 -1.9 76 +2  1008.6  1.1  748  300           
15 18.04.18 тихо ()   20000 м    ясно 
-1.2 -2.8 89 -1  1010  1.2  749  303           
18 18.04.18 тихо ()   10 км    ясно 
-2.9 -4 92 -3  1010.6  0.6  749  306           
00 19.04.18 300 (СЗ) 20000 м    ясно 
+6.9 -1.9 53 +8  1010.9  750  295           
03 19.04.18 090 (В) 20000 м    ясно 
+13 -0 41 +14  1008.8  -1.8  748  288           
06 19.04.18 200 (Ю) 20000 м    10/0 средняя 
[Ac und]
+14.4 -0.1 37 +15  1006.2  -2.5  746  286           
12 19.04.18 220 (ЮЗ) 20000 м    ясно 
+5.8 +1.1 72 +7  1006.4  0.4  746  294           
15 19.04.18 230 (ЮЗ) 20000 м    10/0 средняя 
[Ac und]
+2.5 +0.1 84 +3  1006.5  746  298           
18 19.04.18 тихо ()   20000 м    10/0 средняя 
[Ac und]
+2 -0.7 82 +2  1005.7  -0.9  746  298           
00 20.04.18 290 (З) 3{10}  20000 м    9/0 средняя, верхняя 
[Ac cast|Ci sp]
+12.7 -5.6 27 +13  1007.4  1.8  747  288           
03 20.04.18 310 (СЗ) 20000 м    10/0 средняя, верхняя 
[Ac lent|Ci sp]
+15 -9.3 18 +15  1006.8  -0.5  747  286           
06 20.04.18 260 (З) 20000 м    10/0 средняя 
[Ac und]
+15.2 -2.3 30 +16  1005.5  -1.3  746  285           
12 20.04.18 210 (ЮЗ) 10 км  слаб. ливневой дождь  10/10 600 м кучево-дожд. 
[Cb cap]
+7.4 +5.2 86 +8  1005.8  0.3  746  292           
15 20.04.18 тихо ()   10 км  слаб. ливневой дождь  10/10 600 м кучево-дожд. 
[Cb cap]
+5.9 +4.6 91 +6  1004.3  -1.5  745  293           
18 20.04.18 тихо ()   10 км  слаб. ливневой дождь  10/10 600 м кучево-дожд. 
[Cb cap]
+5.1 +4.1 93 +5  1003.2  -1.1  744  294           
21 20.04.18 310 (СЗ) 20000 м  {ливн. осадки}  10/0 средняя 
[Ac und]
+3.6 -1.8 68 +3  1004.2  0.9  745  296  +3.6      влажная 
03 21.04.18 340 (С) 4{11}  20000 м    9/4 1000 м средняя 
[Sc diur, vesp|Ac trans]
+6 -0.5 63 +4  1010.2  3.8  749  295           
06 21.04.18 330 (СЗ) 3{13}  20000 м    8/4 1000 м средняя 
[Cu hum|Ac trans]
+6.3 -1.7 57 +5  1013  2.8  751  296           
12 21.04.18 310 (СЗ) 20000 м    10/4 1000 м средняя 
[Sc diur, vesp|Ac lent]
+3.2 -3.8 60 +4  1019.3  2.8  756  301           
15 21.04.18 240 (ЮЗ) 20000 м    8/0 верхняя 
[Ci sp]
-0.9 -3.9 80 1021  1.5  757  306           
18 21.04.18 340 (С) 20000 м    9/0 верхняя 
[Ci sp]
+0 -3.2 79 +1  1021.2  0.2  757  305           
00 22.04.18 350 (С) 20000 м    10/3 1000 м верхняя 
[Cu hum|Cs]
+7 -2.3 52 +8  1021.4  -0.3  758  298           
03 22.04.18 280 (З) 20000 м    10/10 1000 м 
[Sc diur, vesp]
+8 -4.2 42 +8  1020.3  -1  757  297           
Время (UTC), дата Ветер
(°,м/с) 
Видим.   Явления Облачность Т
(°С)
Тd
(°С)
f(%) Тe
(°С)
Pmin
(гПа)
dP
(гПа)
Po
(мм)
O2
(г/м3)
Тmin Tmax R s Состояние
почвы

Для получения пояснительной информации подведите курсор к названию столбца.

ПОГОДА в Горине - архив

Всё, что Вы хотите узнать о погоде в Горине - удобно и подробно!

Выберите нужную дату (начиная с 1 января 2015* года) и нажмите кнопку "Найти".
Будут отображены архивные сводки погоды по пункту Горин, начиная с указанной даты.


Отображать данные в формате CSV (для использования в таблицах Excel)


Внимание! Наш архив погоды предназначен исключительно для личного некоммерческого использования в познавательных целях. Если Вам необходимы официальные справки о состоянии погоды (для производственных, юридических, коммерческих и т.п. целей), обращайтесь в органы Росгидромета.

*Примечание: данная дата относится к архиву по метеостанциям СССР (Россия, СНГ, Балтия).
Архив по метеостанциям Зарубежной Европы и Азии (кроме Китая) хранится 10 дней, по другим регионам земного шара (Китай, Африка, Америка, Австралия, Океания) - 1 день.

Горин - район местоположения метеостанции


Название, широта, долгота, высота метеостанции:
Горин 51.2°ш. 136.8°д. 92 м над ур. моря [Российская Федерация]

Дополнительная информация

В oтличие oт бoльшинства пoгoдных сайтoв мы публикуем пoдрoбную метеoинфoрмацию в детальнoм прoфессиoнальнoм фoрмате.

Характеристики температуры и влажнoсти вoздуха измеряются на высoте 2 м в тени вдали oт зданий и деревьев.
Скoрoсть ветра измеряется на высoте 10 м (на урoвне рoста челoвека скoрoсть ветра ниже в 1.5-2 раза). Если метеoстанция нахoдится в гoрoде или в лесу, тo скoрoсть ветра занижена на 2-4 м/с пo сравнению с oткрытым местoм. Скoрoсть ветра над акватoриями крупных рек и oзёр, а также на вершинах хoлмoв на 2-5 м/с выше, чем в oбычных услoвиях.
Атмoсфернoе давление в разных тoчках местнoсти мoжет значительнo oтличаться oт давления на метеoстанции, в зависимoсти oт услoвий рельефа (при пoдъёме на 10 м давление пoнижается примернo на 1 мм рт.ст.).